Location: Cactus School
(34.5700°N, 118.0931°W)
Time: 03:41:39
(UTC-08:00)

OTV 5 (USA 277) - Pass Details

Date: 19 November 2017
Orbit: 404 x 417 km, 43.0° (Epoch: 07 September)

Event Time Altitude Azimuth Distance (km) Brightness Sun altitude
Exits shadow 05:54:13 10° 295° (WNW) 1,445 ? -7.7°
Maximum altitude 05:57:28 70° 211° (SSW) 429 ? -7.1°
Drops below altitude 10° 06:00:43 10° 127° (SE) 1,448 ? -6.5°
Sets 06:02:48 0° 125° (SE) 2,304 ? -6.1°
